Погода в Змеиногорске

Погода в Змеиногорске : погода сейчас, прогноз погоды и архив. Всё, что Вы хотите узнать о погоде в Змеиногорске!

Хотите узнать прогноз погоды в Змеиногорске? Тогда Вам сюда: Погода в Змеиногорске

Поиск расширенной информации на нашем сайте:

Другие новости

Новости СМИ2

Главная страница сайта

Новости сайта

03.07.2017

Напоминаем, что на нашем специализированном сайте Метеоцентр.Азия вы можете получить высокодетализированные автоматические прогнозы погоды по пунктам России, СНГ и мира в авиационном формате (включающие направление и скорость ветра, видимость, явления погоды, количество и форму облачности, нижнюю и верхнюю границу облачности).


Погода в Змеиногорске - сегодня

Время (UTC), дата Ветер
(°,м/с) 
Видим.   Явления Облачность Т
(°С)
Тd
(°С)
f(%) Тe
(°С)
Pmin
(гПа)
dP
(гПа)
Po
(мм)
O2
(г/м3)
Тmin Tmax R s Состояние
почвы
06 21.11.17 210 (ЮЗ) 20000 м  в посл. час ливневой снег  9/6 600 м кучево-дожд., средняя, верхняя 
[Cb cap|Ac trans|Cc]
-3.5 -8.2 70 -6  1041.6  0.6  747  306           
09 21.11.17 180 (Ю) 20000 м    10/1 600 м верхняя 
[Sc|Cs]
-3.9 -8.8 69 -6  1041.3  -0.4  747  306           
12 21.11.17 140 (ЮВ) 20000 м    10/0 верхняя 
[Cs]
-7.1 -11.2 72 -10  1042.4  0.5  747  310    -3.1  0.1     
15 21.11.17 160 (Ю) 20000 м    ясно 
-8.6 -12 76 -8  1042.6  747  312           
18 21.11.17 170 (Ю) 20000 м    10/0 верхняя 
[Cs]
-8.8 -11.9 78 -10  1041.9  -0.7  747  312           
21 21.11.17 тихо ()   20000 м    ясно 
-12.8 -14.8 85 -13  1042.6  -0.1  746  317           
00 22.11.17 050 (СВ) 20000 м    ясно 
-15.3 -17.5 83 -15  1042.5  -0.5  746  320  -15.3      17  неравномерный
сухой снег
100% 
03 22.11.17 тихо ()   20000 м    10/0 верхняя 
[Cs]
-14.9 -17.3 82 -15  1042.5  746  319  -16         
06 22.11.17 тихо ()   20000 м    6/0 верхняя 
[Cs]
-2.6 -11.2 52 -3  1039.4  -0.8  746  304           
09 22.11.17 тихо ()   20000 м    8/0 верхняя 
[Cs]
+0.1 -11.1 43 1037.8  -1  745  301           
12 22.11.17 130 (ЮВ) 20000 м    8/0 верхняя 
[Cs]
-9.7 -13.3 75 -10  1039.1  -0.4  744  312    +0.4       
15 22.11.17 тихо ()   20000 м    ясно 
-12.8 -14.7 86 -13  1038.6  -1.1  744  316           
18 22.11.17 070 (В) 20000 м    ясно 
-14.3 -16.5 83 -14  1037.4  -1.4  743  317           
21 22.11.17 070 (В) 20000 м    ясно 
-14.8 -17 83 -15  1036.2  -1.2  742  317           
00 23.11.17 тихо ()   20000 м    ясно 
-15.4 -17.8 82 -15  1035.4  -0.9  741  318  -15.6      16  неравномерный
сухой снег
100% 
03 23.11.17 тихо ()   20000 м    10/0 верхняя 
[Ci]
-14.5 -17 81 -15  1034.6  -0.6  741  317           
06 23.11.17 тихо ()   20000 м    10/0 верхняя 
[Ci]
-3.1 -8.9 64 -3  1031.9  -0.6  740  303           
09 23.11.17 250 (З) 20000 м    10/0 верхняя 
[Cs]
-1.2 -9 55 -1  1030.8  -0.8  740  300           
12 23.11.17 180 (Ю) 20000 м    10/0 верхняя 
[Cs]
-9.2 -12.4 78 -9  1032.2  740  309    +2.3       
15 23.11.17 тихо ()   20000 м    4/0 верхняя 
[Cs]
-12.2 -14.2 85 -12  1032.5  -0.2  739  313           
18 23.11.17 тихо ()   20000 м    ясно 
-14.2 -16.2 85 -14  1033  0.1  739  316           
21 23.11.17 210 (ЮЗ) 20000 м    ясно 
-15 -17.3 83 -15  1033.1  739  317           
00 24.11.17 тихо ()   20000 м    ясно 
-16 -18.4 82 -16  1033.1  -0.2  739  318  -16      14  неравномерный
сухой снег
100% 
03 24.11.17 тихо ()   20000 м    10/0 верхняя 
[Cs]
-14.9 -17.4 81 -15  1033  0.1  739  317  -16.1         
06 24.11.17 тихо ()   20000 м    10/0 верхняя 
[Cs]
-2.3 -9.4 58 -2  1030.6  -0.2  739  301           
Время (UTC), дата Ветер
(°,м/с) 
Видим.   Явления Облачность Т
(°С)
Тd
(°С)
f(%) Тe
(°С)
Pmin
(гПа)
dP
(гПа)
Po
(мм)
O2
(г/м3)
Тmin Tmax R s Состояние
почвы

Для получения пояснительной информации подведите курсор к названию столбца.

ПОГОДА в Змеиногорске - архив

Всё, что Вы хотите узнать о погоде в Змеиногорске - удобно и подробно!

Выберите нужную дату (начиная с 1 января 2015* года) и нажмите кнопку "Найти".
Будут отображены архивные сводки погоды по пункту Змеиногорск, начиная с указанной даты.


Отображать данные в формате CSV (для использования в таблицах Excel)


Внимание! Наш архив погоды предназначен исключительно для личного некоммерческого использования в познавательных целях. Если Вам необходимы официальные справки о состоянии погоды (для производственных, юридических, коммерческих и т.п. целей), обращайтесь в органы Росгидромета.

*Примечание: данная дата относится к архиву по метеостанциям СССР (Россия, СНГ, Балтия).
Архив по метеостанциям Зарубежной Европы и Азии (кроме Китая) хранится 10 дней, по другим регионам земного шара (Китай, Африка, Америка, Австралия, Океания) - 1 день.

Змеиногорск - район местоположения метеостанции


Название, широта, долгота, высота метеостанции:
Змеиногорск 51.2°ш. 82.2°д. 355 м над ур. моря [Российская Федерация]

Дополнительная информация

В oтличие oт бoльшинства пoгoдных сайтoв мы публикуем пoдрoбную метеoинфoрмацию в детальнoм прoфессиoнальнoм фoрмате.

Характеристики температуры и влажнoсти вoздуха измеряются на высoте 2 м в тени вдали oт зданий и деревьев.
Скoрoсть ветра измеряется на высoте 10 м (на урoвне рoста челoвека скoрoсть ветра ниже в 1.5-2 раза). Если метеoстанция нахoдится в гoрoде или в лесу, тo скoрoсть ветра занижена на 2-4 м/с пo сравнению с oткрытым местoм. Скoрoсть ветра над акватoриями крупных рек и oзёр, а также на вершинах хoлмoв на 2-5 м/с выше, чем в oбычных услoвиях.
Атмoсфернoе давление в разных тoчках местнoсти мoжет значительнo oтличаться oт давления на метеoстанции, в зависимoсти oт услoвий рельефа (при пoдъёме на 10 м давление пoнижается примернo на 1 мм рт.ст.).